When you browse on this site, cookies collect data to enhance your experience and personalize the content and advertising you see.
Visit our Privacy Policy to learn more. By continuing to use the site, you agree to this use of cookies and data.
  • In Sweden
  • List of Countries
  • For 7 days
  • Water Temperature
  • Weather Map
  • Weather Widgets
  • user-avatar
    Login

    Hourly Weather Fez

    Today, 26 February, Wednesday

    Time Temperature Precipitation Wind Pressure Humidity
    00:00 +10°C° 0 mm 0 mps 734 mmHg 88%
    01:00 +9°C° 0 mm 0 mps 734 mmHg 87%
    02:00 +9°C° 0 mm 0 mps 733 mmHg 87%
    03:00 +9°C° 0 mm 0 mps 733 mmHg 87%
    04:00 +9°C° 0 mm 0 mps 733 mmHg 87%
    05:00 +8°C° 0 mm 0 mps 733 mmHg 87%
    06:00 +9°C° 0 mm 1 mps 733 mmHg 88%
    07:00 +11°C° 0 mm 1 mps 733 mmHg 84%
    08:00 +11°C° 0 mm 0 mps 733 mmHg 79%
    09:00 +13°C° 0 mm 0 mps 734 mmHg 74%
    10:00 +16°C° 0 mm 1 mps 734 mmHg 65%
    11:00 +17°C° 0 mm 2 mps 734 mmHg 56%
    12:00 +19°C° 0 mm 2 mps 734 mmHg 47%
    13:00 +19°C° 0 mm 3 mps 733 mmHg 46%
    14:00 +20°C° 0 mm 3 mps 733 mmHg 45%
    15:00 +20°C° 0 mm 4 mps 733 mmHg 45%
    16:00 +19°C° 0 mm 3 mps 732 mmHg 55%
    17:00 +17°C° 0 mm 3 mps 732 mmHg 65%
    18:00 +15°C° 0 mm 2 mps 732 mmHg 76%
    19:00 +14°C° 0 mm 2 mps 733 mmHg 80%
    20:00 +13°C° 0 mm 1 mps 733 mmHg 85%
    21:00 +10°C° 0 mm 0 mps 734 mmHg 89%
    22:00 +10°C° 0 mm 0 mps 733 mmHg 89%
    23:00 +10°C° 0 mm 0 mps 733 mmHg 90%

    Tomorrow, 27 February, Thursday

    Time Temperature Precipitation Wind Pressure Humidity
    00:00 +9°C° 0 mm 0 mps 733 mmHg 90%
    01:00 +9°C° 0 mm 0 mps 733 mmHg 90%
    02:00 +8°C° 0 mm 0 mps 732 mmHg 90%
    03:00 +8°C° 0 mm 0 mps 732 mmHg 90%
    04:00 +8°C° 0 mm 0 mps 732 mmHg 90%
    05:00 +8°C° 0 mm 0 mps 732 mmHg 89%
    06:00 +8°C° 0 mm 0 mps 732 mmHg 89%
    07:00 +10°C° 0 mm 0 mps 732 mmHg 84%
    08:00 +11°C° 0 mm 0 mps 733 mmHg 79%
    09:00 +13°C° 0 mm 0 mps 733 mmHg 75%
    10:00 +16°C° 0 mm 1 mps 733 mmHg 65%
    11:00 +19°C° 0 mm 1 mps 734 mmHg 55%
    12:00 +21°C° 0 mm 1 mps 734 mmHg 45%
    13:00 +22°C° 0 mm 1 mps 733 mmHg 43%
    14:00 +23°C° 0 mm 2 mps 733 mmHg 41%
    15:00 +23°C° 0 mm 2 mps 732 mmHg 39%
    16:00 +20°C° 0 mm 2 mps 732 mmHg 48%
    17:00 +19°C° 0 mm 1 mps 732 mmHg 58%
    18:00 +16°C° 0 mm 1 mps 732 mmHg 67%
    19:00 +15°C° 0 mm 1 mps 732 mmHg 70%
    20:00 +13°C° 0 mm 0 mps 732 mmHg 73%
    21:00 +12°C° 0 mm 0 mps 733 mmHg 75%
    22:00 +11°C° 0 mm 0 mps 732 mmHg 76%
    23:00 +11°C° 0 mm 0 mps 732 mmHg 76%

    Day after tomorrow, 28 February, Friday

    Time Temperature Precipitation Wind Pressure Humidity
    00:00 +11°C° 0 mm 0 mps 732 mmHg 76%
    01:00 +11°C° 0 mm 0 mps 732 mmHg 75%
    02:00 +11°C° 0 mm 0 mps 732 mmHg 74%
    03:00 +11°C° 0 mm 1 mps 731 mmHg 73%
    04:00 +11°C° 0 mm 1 mps 731 mmHg 71%
    05:00 +12°C° 0 mm 1 mps 731 mmHg 68%
    06:00 +12°C° 0 mm 1 mps 731 mmHg 66%
    07:00 +14°C° 0 mm 1 mps 731 mmHg 59%
    08:00 +18°C° 0 mm 1 mps 732 mmHg 51%
    09:00 +20°C° 0 mm 1 mps 732 mmHg 44%
    10:00 +22°C° 0 mm 1 mps 732 mmHg 39%
    11:00 +24°C° 0 mm 1 mps 732 mmHg 35%
    12:00 +26°C° 0 mm 1 mps 732 mmHg 30%
    13:00 +27°C° 0 mm 2 mps 732 mmHg 30%
    14:00 +28°C° 0 mm 3 mps 731 mmHg 29%
    15:00 +28°C° 0 mm 4 mps 731 mmHg 28%
    16:00 +26°C° 0 mm 3 mps 731 mmHg 39%
    17:00 +23°C° 0 mm 2 mps 731 mmHg 49%
    18:00 +21°C° 0 mm 1 mps 731 mmHg 60%
    19:00 +20°C° 0 mm 1 mps 731 mmHg 62%
    20:00 +19°C° 0 mm 1 mps 731 mmHg 65%
    21:00 +18°C° 0 mm 1 mps 731 mmHg 67%
    22:00 +16°C° 0 mm 1 mps 731 mmHg 64%
    23:00 +16°C° 0 mm 1 mps 731 mmHg 62%

    29 February, Saturday

    Time Temperature Precipitation Wind Pressure Humidity
    00:00 +16°C° 0 mm 1 mps 732 mmHg 59%
    01:00 +16°C° 0 mm 1 mps 731 mmHg 60%
    02:00 +15°C° 0 mm 1 mps 731 mmHg 61%
    03:00 +15°C° 0 mm 1 mps 731 mmHg 62%
    04:00 +14°C° 0 mm 1 mps 731 mmHg 65%
    05:00 +14°C° 0 mm 1 mps 731 mmHg 69%
    06:00 +13°C° 0 mm 1 mps 730 mmHg 73%
    07:00 +14°C° 0 mm 1 mps 731 mmHg 70%
    08:00 +16°C° 0 mm 1 mps 731 mmHg 66%
    09:00 +17°C° 0 mm 2 mps 732 mmHg 63%
    10:00 +18°C° 0 mm 2 mps 732 mmHg 58%
    11:00 +20°C° 0 mm 2 mps 732 mmHg 52%
    12:00 +21°C° 0 mm 2 mps 732 mmHg 47%
    13:00 +22°C° 0 mm 3 mps 732 mmHg 46%
    14:00 +22°C° 0 mm 4 mps 732 mmHg 45%
    15:00 +23°C° 0 mm 5 mps 731 mmHg 44%
    16:00 +21°C° 0 mm 4 mps 731 mmHg 51%
    17:00 +19°C° 0 mm 4 mps 732 mmHg 59%
    18:00 +18°C° 0 mm 3 mps 732 mmHg 67%
    19:00 +16°C° 0 mm 3 mps 732 mmHg 74%
    20:00 +14°C° 0 mm 2 mps 733 mmHg 80%
    21:00 +13°C° 0 mm 1 mps 733 mmHg 87%
    22:00 +13°C° 0 mm 1 mps 733 mmHg 86%
    23:00 +12°C° 0 mm 1 mps 732 mmHg 86%

    1 March, Sunday

    Time Temperature Precipitation Wind Pressure Humidity
    00:00 +11°C° 0 mm 0 mps 732 mmHg 85%
    01:00 +11°C° 0 mm 0 mps 732 mmHg 86%
    02:00 +10°C° 0 mm 0 mps 732 mmHg 87%
    03:00 +11°C° 0 mm 1 mps 731 mmHg 87%
    04:00 +10°C° 0 mm 0 mps 731 mmHg 87%
    05:00 +10°C° 0 mm 0 mps 731 mmHg 88%
    06:00 +10°C° 0 mm 0 mps 731 mmHg 88%
    07:00 +11°C° 0 mm 0 mps 732 mmHg 81%
    08:00 +13°C° 0 mm 0 mps 732 mmHg 75%
    09:00 +15°C° 0 mm 0 mps 732 mmHg 69%
    10:00 +19°C° 0 mm 1 mps 732 mmHg 60%
    11:00 +20°C° 0 mm 1 mps 732 mmHg 51%
    12:00 +21°C° 0 mm 2 mps 732 mmHg 43%
    13:00 +22°C° 0 mm 3 mps 732 mmHg 43%
    14:00 +22°C° 0 mm 3 mps 731 mmHg 44%
    15:00 +22°C° 0 mm 3 mps 730 mmHg 45%
    16:00 +21°C° 0 mm 3 mps 730 mmHg 52%
    17:00 +19°C° 0 mm 2 mps 730 mmHg 59%
    18:00 +18°C° 0 mm 2 mps 730 mmHg 66%
    19:00 +16°C° 0 mm 2 mps 730 mmHg 72%
    20:00 +15°C° 0 mm 1 mps 731 mmHg 78%
    21:00 +14°C° 0 mm 1 mps 731 mmHg 84%
    22:00 +14°C° 0 mm 1 mps 731 mmHg 84%
    23:00 +12°C° 0 mm 0 mps 731 mmHg 83%

    2 March, Monday

    Time Temperature Precipitation Wind Pressure Humidity
    00:00 +12°C° 0 mm 0 mps 731 mmHg 82%
    01:00 +12°C° 0 mm 0 mps 730 mmHg 84%
    02:00 +12°C° 0 mm 1 mps 730 mmHg 85%
    03:00 +12°C° 0 mm 1 mps 730 mmHg 86%
    04:00 +12°C° 0 mm 1 mps 730 mmHg 87%
    05:00 +12°C° 0 mm 1 mps 730 mmHg 88%
    06:00 +11°C° 0 mm 1 mps 730 mmHg 88%
    07:00 +13°C° 0 mm 1 mps 731 mmHg 84%
    08:00 +14°C° 0 mm 1 mps 731 mmHg 79%
    09:00 +16°C° 0 mm 2 mps 732 mmHg 75%
    10:00 +18°C° 0 mm 3 mps 732 mmHg 66%
    11:00 +20°C° 0 mm 4 mps 732 mmHg 57%
    12:00 +22°C° 0 mm 5 mps 732 mmHg 48%
    13:00 +22°C° 0 mm 5 mps 732 mmHg 49%
    14:00 +21°C° 0 mm 6 mps 732 mmHg 50%
    15:00 +21°C° 0 mm 6 mps 732 mmHg 52%
    16:00 +20°C° 0 mm 5 mps 732 mmHg 60%
    17:00 +18°C° 0 mm 4 mps 732 mmHg 68%
    18:00 +17°C° 0 mm 3 mps 732 mmHg 77%
    19:00 +16°C° 0 mm 3 mps 732 mmHg 82%
    20:00 +14°C° 0 mm 2 mps 733 mmHg 87%
    21:00 +13°C° 0 mm 1 mps 733 mmHg 92%
    22:00 +13°C° 0 mm 1 mps 733 mmHg 92%
    23:00 +13°C° 0 mm 1 mps 733 mmHg 92%
    Show more